Regional Weather Roundup
Issued by NWS

Home | Current Version | Previous Version | Graphics & Text | Print | Product List | Glossary On
Versions: 1 2 3 4 5 6 7 8 9 10 11 12 13 14 15 16 17 18 19 20 21 22 23 24 25 26 27 28 29 30 31 32 33 34 35 36 37 38 39 40 41 42 43 44 45 46 47 48 49 50
000
ASUS43 KTOP 250708
RWRKS

WEATHER ROUNDUP FOR KANSAS
NATIONAL WEATHER SERVICE GOODLAND KS
100 AM CST SAT FEB 25 2017

NOTE:  "FAIR" INDICATES FEW OR NO CLOUDS BELOW 12,000 FEET WITH NO
SIGNIFICANT WEATHER AND/OR OBSTRUCTIONS TO VISIBILITY.

KSZ001>006-013>018-027>032-041>047-250800-
NORTHWEST KANSAS

CITY           SKY/WX    TMP DP  RH WIND       PRES   REMARKS
GOODLAND       CLEAR     11   7  84 W5        30.11F
HAYS           CLEAR     13  10  88 W9        30.19S
HILL CITY      CLEAR     17  12  80 NW8       30.19S
RUSSELL        CLEAR     17  12  80 W8        30.17R
$$

KSZ061>065-074>080-084>089-250800-
SOUTHWEST KANSAS

CITY           SKY/WX    TMP DP  RH WIND       PRES   REMARKS
DODGE CITY     CLEAR     12   8  84 N8        30.17R
ELKHART          N/A     22   7  53 N3          N/A
GARDEN CITY    CLEAR     16   9  74 N13       30.15S WCI   2
GREAT BEND     CLEAR     14  11  87 W9        30.19S
LIBERAL        CLEAR     18   7  62 N6        30.16S
PRATT          CLEAR     13   8  83 W6        30.19S
$$

KSZ066>073-081>083-090>101-250800-
SOUTHEAST KANSAS

CITY           SKY/WX    TMP DP  RH WIND       PRES   REMARKS
CHANUTE        CLEAR     25  17  72 NW9       30.14S
COFFEYVILLE    CLEAR     28  16  60 NW10      30.18R WCI  19
HUTCHINSON     CLEAR     20  14  77 W9        30.18S
MEDICINE LODGE   N/A     20  13  74 N9        30.20R
PARSONS        CLEAR     25  16  68 NW7       30.17R
WICHITA INTL   CLEAR     24  16  71 NW13      30.18S WCI  12
WICHITA JABRA  CLEAR     22  16  78 NW10      30.17S WCI  11
WICHITA MCCONL CLEAR     24  15  69 N10       30.17S WCI  14
WINFIELD       CLEAR     23  17  78 NW6       30.20R
$$

KSZ007>012-019>026-033>040-048>060-102>105-250800-
NORTHEAST KANSAS

CITY           SKY/WX    TMP DP  RH WIND       PRES   REMARKS
CONCORDIA      CLEAR     20  14  77 W13       30.15R WCI   7
EMPORIA        CLEAR     23  17  78 NW8       30.13F
LAWRENCE       CLEAR     23  18  81 W8        30.11R
MANHATTAN      CLEAR     24  16  71 W7        30.15S
MARYSVILLE     CLEAR     23  18  80 NW10      30.12R WCI  12
OLATHE IND     CLOUDY    24  18  77 W10       30.10R WCI  14
OLATHE EXE     CLOUDY    24  19  81 W10       30.08R WCI  14
SALINA         CLEAR     22  15  75 W8        30.18S
TOPEKA BILLARD CLEAR     25  20  81 W12       30.12R WCI  14
TOPEKA FORBES  CLEAR     25  18  74 W14       30.11R WCI  13
$$



USA.gov is the U.S. government's official web portal to all federal, state and local government web resources and services.